[[{"header":{"parameterUnit":"m.s-1","parameterCategory":1,"la1":30.2991,"la2":30.254,"lo1":-89.0895,"lo2":-89.0444,"dy":0.0017,"dx":0.0017,"nx":28,"ny":28,"refTime":"2024-04-09T03:00:00:Z","depth":0,"parameterNumber":2,"parameterNumberName":"U-component_of_WINDS"},"data":[0,0,0,0,0,0,0,0,0,0,0,0,0,0,0,0,0,0,0,0,0,0,0,0,0,0,0,0,0,0,0,0,0,0,0,0,0,0,0,0,0,0,0,0,0,0,0,0,0,0,0,0,0,0,0,0,0,0,-5.0778,-5.0778,0,-5.0851,-5.0852,-5.0853,-5.0852,-5.0851,-5.085,-5.0849,-5.0922,-5.0925,-5.0928,0,0,0,0,0,0,0,0,0,0,0,0,0,-5.0636,-5.0638,-5.0778,-5.0778,-5.0779,-5.0851,-5.0852,-5.0853,-5.0852,-5.0851,-5.085,-5.0849,-5.0921,-5.0924,-5.0928,0,0,0,0,0,0,0,0,0,0,0,0,0,-5.0702,-5.0639,-5.0777,-5.0788,-5.0789,-5.0851,-5.0852,-5.0853,-5.0853,-5.0851,-5.085,-5.0848,-5.092,-5.0924,-5.0928,-5.0984,0,0,-5.0941,-5.0943,0,0,0,0,0,0,0,0,-5.0698,-5.0707,-5.0785,-5.0787,-5.0789,-5.0841,-5.0829,-5.0897,-5.0853,-5.0828,-5.0849,-5.0848,-5.0896,-5.0902,-5.0919,-5.0987,-5.099,-5.0942,-5.0944,-5.0946,-5.0947,0,0,0,0,0,0,0,-5.0694,-5.0704,-5.0807,-5.0786,-5.0789,-5.0789,-5.0796,-5.0842,-5.0869,-5.083,-5.0831,-5.084,-5.0897,-5.0915,-5.0921,-5.0991,-5.0942,-5.0945,-5.0948,-5.095,-5.111,-5.1112,0,0,0,0,0,0,-5.0687,-5.07,-5.0804,-5.0809,-5.0739,-5.0792,-5.0801,-5.0826,-5.0869,-5.0874,-5.0841,-5.0839,-5.0909,-5.0916,-5.0923,-5.0991,-5.0946,-5.095,-5.0953,-5.1109,-5.1111,-5.1113,0,0,0,0,0,0,-5.0684,-5.0696,-5.0801,-5.0755,-5.0768,-5.0796,-5.0824,-5.0828,-5.0846,-5.0877,-5.0881,-5.0854,-5.0908,-5.0917,-5.0969,-5.0994,-5.0952,-5.0956,-5.1107,-5.1109,-5.1112,-5.1128,0,0,0,0,0,0,-5.068,-5.0695,-5.0716,-5.0755,-5.0771,-5.0846,-5.0826,-5.0831,-5.0854,-5.0853,-5.0891,-5.0895,-5.0907,-5.0963,-5.0974,-5.0999,-5.0959,-5.1105,-5.1108,-5.1111,-5.1125,-5.113,-5.1135,0,0,0,0,0,-5.0675,-5.0717,-5.0717,-5.073,-5.0798,-5.0847,-5.0856,-5.0869,-5.0856,-5.0877,-5.0898,-5.0894,-5.099,-5.0968,-5.098,-5.1007,-5.1103,-5.1107,-5.1111,-5.1123,-5.1129,-5.1135,0,0,0,0,0,0,-5.0678,-5.0722,-5.0723,-5.0779,-5.081,-5.0847,-5.0874,-5.0876,-5.091,-5.0907,-5.0922,-5.0931,-5.0983,-5.1001,-5.0975,-5.1064,-5.1045,-5.1051,-5.105,-5.1057,-5.1061,-5.1055,-5.0963,0,0,0,0,0,-5.0686,-5.0723,-5.0759,-5.0805,-5.0821,-5.0845,-5.0867,-5.0876,-5.0907,-5.092,-5.0944,-5.0974,-5.1012,-5.1036,-5.1071,-5.1129,-5.1137,-5.1154,-5.1159,-5.1163,-5.1167,-5.12,-5.1207,-5.1125,-5.1125,-5.1125,0,0,-5.0701,-5.073,-5.0752,-5.0807,-5.0831,-5.0869,-5.0856,-5.0896,-5.0924,-5.0926,-5.0976,-5.0996,-5.1031,-5.1086,-5.1111,-5.1102,-5.1193,-5.1168,-5.1171,-5.1173,-5.1204,-5.1212,-5.1219,-5.1128,-5.1128,-5.1127,0,0,-5.0747,-5.0773,-5.0815,-5.0841,-5.0879,-5.0896,-5.0906,-5.0945,-5.0958,-5.1009,-5.1012,-5.1046,-5.111,-5.1135,-5.1156,-5.1218,-5.1216,-5.1229,-5.1254,-5.1286,-5.1292,-5.1298,-5.1319,-5.1326,-5.1234,-5.1234,-5.1234,0,-5.0761,-5.0819,-5.0835,-5.0877,-5.0901,-5.0907,-5.0949,-5.0973,-5.1021,-5.1038,-5.1028,-5.111,-5.1134,-5.1195,-5.1211,-5.1228,-5.124,-5.1223,-5.129,-5.1296,-5.1302,-5.1322,-5.133,-5.1235,-5.1235,-5.1235,-5.1235,0,-5.0833,-5.0874,-5.0903,-5.095,-5.0978,-5.102,-5.1043,-5.107,-5.1077,-5.1095,-5.1148,-5.1178,-5.1221,-5.1237,-5.1243,-5.13,-5.1293,-5.1287,-5.1267,-5.131,-5.133,-5.1337,-5.1237,-5.1237,-5.1236,-5.1236,0,0,-5.0879,-5.0939,-5.0949,-5.0972,-5.1017,-5.1048,-5.1091,-5.1134,-5.1157,-5.1191,-5.1227,-5.1283,-5.1278,-5.1302,-5.1312,-5.134,-5.1387,-5.1331,-5.1332,-5.1339,-5.1451,-5.1454,-5.1463,-5.1388,-5.1389,-5.1391,-5.1448,0,-5.093,-5.1006,-5.1024,-5.1089,-5.1127,-5.1135,-5.1173,-5.1204,-5.1223,-5.1258,-5.1279,-5.1318,-5.1309,-5.1324,-5.1353,-5.1375,-5.1409,-5.1372,-5.142,-5.1421,-5.1408,-5.1473,-5.1476,-5.1528,-5.1455,-5.1457,-5.1458,0,-5.0997,-5.1034,-5.1104,-5.1146,-5.1162,-5.1196,-5.1238,-5.1272,-5.1309,-5.1321,-5.135,-5.1358,-5.1404,-5.1385,-5.1447,-5.1422,-5.1443,-5.1458,-5.146,-5.1463,-5.144,-5.1475,-5.1545,-5.1552,-5.147,-5.1469,-5.1468,0,-5.1022,-5.109,-5.1141,-5.116,-5.1211,-5.1234,-5.1256,-5.1292,-5.1318,-5.1356,-5.1372,-5.1415,-5.1437,-5.1469,-5.1489,-5.1474,-5.155,-5.1533,-5.1561,-5.156,-5.1573,-5.1572,-5.1645,-5.1592,-5.1591,-5.1591,-5.1591,0,-5.1075,-5.1116,-5.1153,-5.1184,-5.1231,-5.1253,-5.13,-5.1322,-5.1355,-5.139,-5.1401,-5.1434,-5.1459,-5.1496,-5.1512,-5.1561,-5.1572,-5.1582,-5.1585,-5.158,-5.1578,-5.1592,-5.1588,-5.1593,-5.1593,-5.1593,-5.1592,0,-5.1109,-5.1136,-5.1191,-5.1236,-5.1249,-5.1282,-5.132,-5.1351,-5.1372,-5.1417,-5.1429,-5.1461,-5.1505,-5.153,-5.1584,-5.1595,-5.165,-5.1653,-5.1638,-5.1638,-5.1664,-5.1661,-5.1747,-5.1759,-5.1699,-5.17,-5.17,0,-5.114,-5.1172,-5.1222,-5.1247,-5.127,-5.131,-5.1337,-5.1361,-5.1389,-5.1436,-5.1461,-5.1506,-5.1543,-5.1613,-5.1642,-5.1684,-5.1687,-5.1714,-5.1693,-5.1687,-5.1685,-5.1682,-5.1685,-5.1717,-5.1717,-5.1718,-5.1718,0,-5.119,-5.1203,-5.1242,-5.1286,-5.1319,-5.1355,-5.139,-5.141,-5.144,-5.1471,-5.1517,-5.1546,-5.1604,-5.1649,-5.1694,-5.1717,-5.1722,-5.1725,-5.1734,-5.1727,-5.1716,-5.1721,-5.1645,-5.1722,-5.1722,-5.1721,-5.1721,-5.1721,-5.1223,-5.1253,-5.1293,-5.1336,-5.1367,-5.14,-5.1431,-5.1458,-5.1497,-5.1546,-5.1559,-5.1607,-5.1646,-5.1708,-5.1733,-5.1771,-5.1766,-5.1778,-5.1781,-5.1783,-5.1784,-5.1713,-5.178,-5.178,-5.178,-5.178,-5.178,0,-5.1273,-5.13,-5.1341,-5.1391,-5.1426,-5.1431,-5.1471,-5.15,-5.1543,-5.1579,-5.1616,-5.167,-5.1715,-5.1748,-5.1794,-5.1818,-5.1822,-5.1829,-5.1826,-5.1831,-5.1786,-5.1774,-5.1825,-5.1825,-5.1825,-5.1825,-5.1825,-5.1825,-5.1303,-5.1354,-5.1372,-5.1438,-5.1465,-5.1514,-5.1536,-5.1568,-5.1597,-5.1657,-5.1695,-5.1717,-5.1753,-5.1802,-5.1843,-5.1852,-5.1867,-5.1874,-5.1883,-5.1839,-5.1834,-5.183,-5.1818,-5.1878,-5.1878,-5.1925,-5.1925,-5.1925]},{"header":{"parameterUnit":"m.s-1","parameterCategory":1,"la1":30.2991,"la2":30.254,"lo1":-89.0895,"lo2":-89.0444,"dy":0.0017,"dx":0.0017,"nx":28,"ny":28,"refTime":"2024-04-09T03:00:00:Z","depth":0,"parameterNumber":3,"parameterNumberName":"V-component_of_WINDS"},"data":[0,0,0,0,0,0,0,0,0,0,0,0,0,0,0,0,0,0,0,0,0,0,0,0,0,0,0,0,0,0,0,0,0,0,0,0,0,0,0,0,0,0,0,0,0,0,0,0,0,0,0,0,0,0,0,0,0,0,2.5645,2.5645,0,2.5617,2.5617,2.5616,2.5653,2.5654,2.5656,2.5657,2.5622,2.562,2.5618,0,0,0,0,0,0,0,0,0,0,0,0,0,2.5726,2.5724,2.5645,2.5645,2.5644,2.5617,2.5617,2.5616,2.5653,2.5655,2.5656,2.5658,2.5623,2.562,2.5617,0,0,0,0,0,0,0,0,0,0,0,0,0,2.5694,2.5724,2.5645,2.566,2.5661,2.5617,2.5617,2.5616,2.5653,2.5655,2.5657,2.5658,2.5623,2.562,2.5617,2.5556,0,0,2.5607,2.5606,0,0,0,0,0,0,0,0,2.5695,2.5691,2.5658,2.5658,2.566,2.5641,2.5632,2.5596,2.5652,2.5655,2.5657,2.5659,2.5626,2.5623,2.5613,2.5555,2.5553,2.5607,2.5605,2.5603,2.5602,0,0,0,0,0,0,0,2.5698,2.5692,2.5634,2.5657,2.5658,2.5666,2.5664,2.5626,2.5629,2.5655,2.5658,2.5654,2.5627,2.5616,2.5612,2.5552,2.5607,2.5604,2.5602,2.56,2.5446,2.5444,0,0,0,0,0,0,2.5699,2.5694,2.5635,2.5633,2.5683,2.5663,2.566,2.5645,2.563,2.563,2.5653,2.5656,2.5621,2.5616,2.5611,2.5541,2.5603,2.56,2.5598,2.5448,2.5445,2.5443,0,0,0,0,0,0,2.57,2.5693,2.5636,2.5664,2.5657,2.5659,2.5641,2.5643,2.5632,2.5628,2.5629,2.5641,2.5622,2.5616,2.5571,2.554,2.5599,2.5596,2.5451,2.5447,2.5444,2.5399,0,0,0,0,0,0,2.5703,2.5694,2.5671,2.5663,2.5656,2.5597,2.564,2.5641,2.5627,2.5631,2.5617,2.5617,2.5623,2.5575,2.5567,2.5537,2.5593,2.5453,2.5449,2.5445,2.5403,2.5395,2.5388,0,0,0,0,0,2.5705,2.5658,2.567,2.5663,2.5628,2.5595,2.559,2.56,2.5624,2.5602,2.56,2.5617,2.5545,2.5571,2.5562,2.553,2.5455,2.545,2.5446,2.5407,2.5397,2.5388,0,0,0,0,0,0,2.5659,2.5657,2.567,2.5619,2.5607,2.5601,2.5573,2.5589,2.5568,2.5573,2.5584,2.558,2.5533,2.5527,2.5555,2.5472,2.5504,2.5497,2.5478,2.5468,2.546,2.5462,2.559,0,0,0,0,0,2.5643,2.5618,2.5617,2.5571,2.5565,2.557,2.5556,2.5565,2.5552,2.5547,2.5541,2.5527,2.5502,2.5484,2.546,2.5403,2.5401,2.5377,2.5369,2.5362,2.5356,2.5328,2.5318,2.5427,2.5427,2.5428,0,0,2.5609,2.5605,2.5588,2.5562,2.5554,2.5527,2.5565,2.5534,2.5514,2.5541,2.55,2.5495,2.548,2.543,2.5407,2.5423,2.5326,2.5356,2.5351,2.5349,2.5322,2.5312,2.5302,2.5424,2.5425,2.5425,0,0,2.5534,2.5528,2.5491,2.5483,2.5472,2.5476,2.5467,2.546,2.5459,2.5418,2.5439,2.5414,2.5369,2.5358,2.5347,2.5271,2.5287,2.5263,2.5221,2.5194,2.5185,2.5178,2.5152,2.5143,2.5257,2.5257,2.5257,0,2.5492,2.5455,2.5469,2.5438,2.5427,2.5453,2.5416,2.5407,2.5387,2.5378,2.5397,2.5344,2.5335,2.5283,2.5266,2.5255,2.5245,2.5264,2.5186,2.5178,2.5171,2.5147,2.5137,2.5254,2.5254,2.5255,2.5255,0,2.5405,2.5379,2.535,2.5334,2.5319,2.5285,2.5294,2.5276,2.5288,2.5289,2.5248,2.5239,2.5216,2.5204,2.5212,2.5154,2.5165,2.5184,2.5217,2.5158,2.5135,2.5126,2.525,2.5251,2.5252,2.5253,0,0,2.5298,2.5294,2.5283,2.5278,2.5268,2.5247,2.5215,2.5194,2.518,2.5166,2.5139,2.5102,2.5121,2.5108,2.5116,2.5092,2.5035,2.5115,2.5115,2.5101,2.4972,2.4958,2.4947,2.5046,2.5044,2.5043,2.4974,0,2.5225,2.5171,2.5185,2.513,2.5107,2.5133,2.5105,2.5096,2.5097,2.5076,2.5077,2.5052,2.5078,2.5071,2.5048,2.5047,2.501,2.5052,2.5021,2.5019,2.5025,2.4936,2.492,2.4856,2.4965,2.4964,2.4963,0,2.5131,2.5118,2.5063,2.5061,2.5051,2.5026,2.501,2.4989,2.498,2.4983,2.497,2.4984,2.4951,2.4985,2.494,2.4969,2.4957,2.4955,2.4953,2.495,2.4988,2.4932,2.4835,2.4826,2.4949,2.495,2.4951,0,2.5061,2.5029,2.4993,2.4987,2.4982,2.4964,2.4961,2.4954,2.4942,2.4927,2.4919,2.4899,2.4889,2.4873,2.4881,2.4904,2.4836,2.4869,2.4837,2.4837,2.4821,2.4822,2.4722,2.4812,2.4812,2.4812,2.4812,0,2.4979,2.4944,2.4962,2.4939,2.4901,2.4917,2.4879,2.4879,2.4873,2.485,2.487,2.4849,2.486,2.4839,2.4845,2.4808,2.4803,2.4804,2.4806,2.4803,2.4803,2.4795,2.48,2.481,2.481,2.4811,2.4811,0,2.4894,2.4904,2.4866,2.4867,2.4867,2.4839,2.4839,2.4818,2.4822,2.4793,2.4787,2.4793,2.477,2.4777,2.475,2.4754,2.4708,2.4715,2.4712,2.4714,2.4682,2.4686,2.4575,2.4561,2.4659,2.4658,2.4657,0,2.4841,2.4816,2.4815,2.4803,2.48,2.4779,2.4768,2.4782,2.4769,2.4759,2.4739,2.4718,2.4702,2.4663,2.4664,2.4644,2.4652,2.4614,2.4649,2.4647,2.4653,2.4655,2.4653,2.4607,2.4606,2.4605,2.4605,0,2.4746,2.4754,2.4738,2.4724,2.4711,2.47,2.4691,2.4679,2.4694,2.4678,2.4656,2.4644,2.4619,2.4598,2.4581,2.4577,2.4593,2.4594,2.4586,2.4582,2.4583,2.4584,2.4695,2.4596,2.4597,2.4598,2.4598,2.4598,2.4677,2.4657,2.4654,2.4636,2.4632,2.4624,2.4605,2.4608,2.4591,2.4574,2.4583,2.4558,2.4551,2.453,2.4524,2.4504,2.4518,2.4505,2.4502,2.4499,2.4496,2.4585,2.45,2.45,2.4501,2.4501,2.4501,0,2.4585,2.4586,2.4569,2.4558,2.4544,2.4563,2.4555,2.4542,2.452,2.4513,2.4498,2.4474,2.4454,2.4455,2.4437,2.4421,2.4428,2.4416,2.4417,2.4416,2.4484,2.4493,2.441,2.441,2.441,2.441,2.441,2.4411,2.4536,2.4504,2.4511,2.4477,2.4477,2.4455,2.4449,2.4441,2.4436,2.4409,2.4394,2.4396,2.4392,2.4374,2.4358,2.4358,2.4351,2.4336,2.4339,2.4402,2.4411,2.442,2.4429,2.4334,2.4334,2.4274,2.4274,2.4273]}]]